User: anonymous   Login
Location: Unspecified
(0.0000°N, 0.0000°E)
Time: 20:20:38
(UTC+00:00)
Language:

Aussat K2 - Orbit

View from above orbital plane
View from above orbital plane
View from above satellite
View from above satellite

Ground track
Ground track

The orbit data is extracted from the following two-line orbital elements,

1 16275U 85109C   15243.94260703  .00000029  00000-0  00000+0 0  9990
2 16275  14.9612  15.6191 0006945 188.2123 179.0818  0.99933208 98675
Epoch (UTC): 31 August 2015 22:37:21
Eccentricity: 0.0006945
inclination: 14.9612°
perigee height: 35852 km
apogee height: 35911 km
right ascension of ascending node: 15.6191°
argument of perigee: 188.2123°
revolutions per day: 0.99933208
mean anomaly at epoch: 179.0818°
orbit number at epoch: 9867

The dashed part of the orbit path shows where the satellite is in the earth's shadow,  

DLR